Location: Wien
(48.2320°N, 16.3586°E)
Time: 04:52:53
(UTC+01:00)

ISS - Visible Passes

Search period start: 17 March 2026 00:00
Search period end: 27 March 2026 00:00
Orbit: 417 x 426 km, 51.6° (Epoch: 16 March)

Date Brightness Start Highest point End Pass type
(mag) Time Alt. Az. Time Alt. Az. Time Alt. Az.
17 Mar -3.0 19:53:41 10° W 19:57:00 46° N 19:57:38 40° NNE visible
18 Mar -3.1 19:06:44 10° W 19:10:05 51° N 19:12:45 15° ENE visible
18 Mar -1.6 20:43:56 10° WNW 20:45:45 27° NW 20:45:45 27° NW visible
19 Mar -3.1 19:57:02 10° WNW 20:00:21 46° N 20:00:49 43° NNE visible
20 Mar -2.9 19:10:05 10° WNW 19:13:23 45° N 19:15:50 16° ENE visible
20 Mar -1.6 20:47:05 10° WNW 20:48:50 28° WNW 20:48:50 28° WNW visible
21 Mar -3.6 20:00:12 10° WNW 20:03:35 62° NNE 20:03:51 59° NE visible
22 Mar -3.2 19:13:16 10° WNW 19:16:37 52° N 19:18:51 19° E visible
22 Mar -1.6 20:50:12 10° WNW 20:51:51 25° W 20:51:51 25° W visible
23 Mar -3.9 20:03:14 10° WNW 20:06:38 76° SSW 20:06:51 72° SSE visible
24 Mar -3.8 19:16:17 10° WNW 19:19:42 81° NNE 19:21:51 21° ESE visible
24 Mar -1.2 20:53:30 10° W 20:54:51 18° WSW 20:54:51 18° WSW visible
25 Mar -2.7 20:06:20 10° WNW 20:09:27 34° SW 20:09:54 33° SSW visible
26 Mar -3.1 19:19:15 10° WNW 19:22:34 51° SSW 19:24:59 17° SE visible
